Regional Weather Roundup
Issued by NWS

Home | Current Version | Previous Version | Graphics & Text | Print | Product List | Glossary On
Versions: 1 2 3 4 5 6 7 8 9 10 11 12 13 14 15 16 17 18 19 20 21 22 23 24 25 26 27 28 29 30 31 32 33 34 35 36 37 38 39 40 41 42 43 44 45 46 47 48 49 50
000
ASUS43 KLSX 250407
RWRMO

WEATHER SUMMARY FOR MISSOURI
NATIONAL WEATHER SERVICE SPRINGFIELD MO
1100 PM CDT FRI OCT 24 2014

NOTE: "FAIR" INDICATES FEW OR NO CLOUDS BELOW 12,000 FEET WITH NO
       SIGNIFICANT WEATHER AND/OR OBSTRUCTIONS TO VISIBILITY.
       CURRENT SKY AND/OR WEATHER CONDITIONS ARE NOT AVAILABLE FOR
       CHILLICOTHE AND FARMINGTON.

MOZ001>031-035>038-043-044-053-054-250500-
...NORTHERN AND WESTERN MISSOURI...

CITY           SKY/WX    TMP DP  RH WIND       PRES   REMARKS
KANSAS CTY INT PTCLDY    62  60  93 S7        29.99R
KANSAS C DTWN  CLEAR     68  61  78 SW3       29.99R
LEE`S SUMMIT   CLEAR     65  60  84 SW9       30.00S
ST JOSEPH      CLEAR     60  58  92 NE3       29.98R
CHILLICOTHE      N/A     58  56  93 CALM      29.99R
KIRKSVILLE     MOCLDY    62  59  90 SW5       29.98S

$$
MOZ066>068-077>081-088>096-101>105-250500-
...SOUTHWEST MISSOURI...

CITY           SKY/WX    TMP DP  RH WIND       PRES   REMARKS
SPRINGFIELD    CLEAR     61  58  90 S8        30.06S
JOPLIN         CLEAR     65  60  84 S10       30.05S

$$
MOZ032>034-039>042-045>050-055>058-069>072-250500-
...CENTRAL MISSOURI...

CITY           SKY/WX    TMP DP  RH WIND       PRES   REMARKS
COLUMBIA       PTCLDY    64  60  87 SW9       30.01R
JEFFERSON CITY CLEAR     66  59  78 CALM      30.01R
ROLLA          CLEAR     62  57  83 SW13      30.01S
SEDALIA        CLEAR     67  60  78 SW12      30.02R
WHITEMAN AFB   CLEAR     64  60  87 SW9       30.00S
OSAGE BEACH    CLEAR     63  57  82 S6        30.03S

$$
MOZ051-052-059>065-250500-
...EAST CENTRAL MISSOURI...

CITY           SKY/WX    TMP DP  RH WIND       PRES   REMARKS
ST LOUIS INTL  MOCLDY    65  51  60 SW5       30.00S
SPIRIT OF STL  MOCLDY    66  57  72 SW8       29.98S
ST CHARLES     MOCLDY    56  53  90 CALM      29.99S

$$
MOZ072>076-082>087-097>100-106>115-250500-
...SOUTH CENTRAL AND SOUTHEAST MISSOURI...

CITY           SKY/WX    TMP DP  RH WIND       PRES   REMARKS
CAPE GIRARDEAU PTCLDY    54  51  90 CALM      30.06S
FARMINGTON     CLEAR     61  54  77 CALM      30.06F
POPLAR BLUFF   PTCLDY    55  52  89 CALM      30.06S FOG
WEST PLAINS    CLEAR     62  56  80 SW7       30.08F

$$



USA.gov is the U.S. government's official web portal to all federal, state and local government web resources and services.